K8HC Weather Reports


time (UTC)temp
F
wind
direction
speed
knots
gust
knots
rain 1hr
in
rain 24hr
in
rain mn
in
humidity
%
barometer
mb
20260507185403 75 81 0.9 2.6 0.00 0.00 0.00 28 1009.6
20260507184718 75 104 0.9 1.7 0.00 0.00 0.00 29 1009.6
20260507183603 74 50 0.9 2.6 0.00 0.00 0.00 30 1009.6
20260507182703 73 285 0.9 2.6 0.00 0.00 0.00 30 1009.7
20260507181803 74 320 0.9 3.5 0.00 0.00 0.00 30 1009.6
20260507180903 72 250 0.9 1.7 0.00 0.01 0.00 32 1009.7
20260507180003 72 232 0.9 2.6 0.00 0.02 0.00 33 1009.9
20260507175403 71 275 0.9 2.6 0.00 0.03 0.00 32 1010.0
20260507174503 70 76 0.9 3.5 0.00 0.03 0.00 34 1010.3
20260507173603 71 286 0.9 3.5 0.00 0.03 0.00 33 1010.5
20260507172703 70 288 0.9 2.6 0.00 0.03 0.00 35 1010.7
20260507171803 70 345 0.9 2.6 0.00 0.04 0.00 36 1010.8
20260507170903 70 296 0.9 3.5 0.00 0.04 0.00 38 1011.2
20260507170220 68 334 0.9 3.5 0.00 0.04 0.00 38 1011.3
20260507165403 68 294 0.9 3.5 0.00 0.04 0.00 35 1011.4
20260507164503 68 306 0.9 2.6 0.00 0.04 0.00 37 1011.4
20260507163603 68 265 0.9 2.6 0.00 0.04 0.00 38 1011.7
20260507162919 68 170 0.9 2.6 0.00 0.04 0.00 36 1011.7
20260507161803 67 331 0.9 5.2 0.00 0.04 0.00 42 1011.8
20260507160903 66 343 0.9 5.2 0.00 0.04 0.00 36 1011.9
20260507160003 65 59 0.9 2.6 0.00 0.04 0.00 39 1012.1
20260507155403 64 67 0.9 2.6 0.00 0.04 0.00 39 1012.2
20260507154503 64 93 0.9 1.7 0.00 0.04 0.00 42 1012.4
20260507153817 63 272 0.9 2.6 0.00 0.04 0.00 41 1012.5
20260507152703 62 35 0.9 2.6 0.00 0.04 0.00 44 1012.4
20260507151803 61 316 0.9 1.7 0.00 0.04 0.00 46 1012.6
20260507150903 60 132 0.9 3.5 0.00 0.04 0.00 46 1012.7
20260507150003 59 0 0.0 1.7 0.00 0.04 0.00 47 1012.9
20260507145403 59 0 0.0 1.7 0.00 0.04 0.00 47 1013.1
20260507144503 59 358 0.9 1.7 0.00 0.04 0.00 49 1013.2
20260507143603 59 38 0.9 2.6 0.00 0.04 0.00 49 1013.4
20260507142703 58 83 0.9 2.6 0.00 0.04 0.00 50 1013.4
20260507141803 57 0 0.0 0.9 0.00 0.04 0.00 53 1013.6
20260507140903 57 0 0.0 1.7 0.00 0.04 0.00 51 1013.6
20260507140003 57 0 0.0 0.9 0.00 0.04 0.00 51 1013.7
20260507135403 57 0 0.0 0.9 0.00 0.04 0.00 54 1013.8
20260507134503 56 0 0.0 0.9 0.00 0.05 0.00 54 1014.0
20260507133603 55 0 0.0 3.5 0.00 0.06 0.00 56 1014.0
20260507132703 55 0 0.0 1.7 0.00 0.06 0.00 56 1014.2
20260507131803 54 0 0.0 0.9 0.00 0.06 0.00 59 1014.2
20260507130903 53 0 0.0 0.9 0.00 0.07 0.00 61 1014.1
20260507130217 53 0 0.0 0.9 0.00 0.08 0.00 60 1014.3
20260507125403 53 0 0.0 1.7 0.00 0.09 0.00 59 1014.3
20260507124503 52 0 0.0 0.9 0.00 0.10 0.00 59 1014.3
20260507123603 52 0 0.0 1.7 0.00 0.11 0.00 60 1014.3
20260507122705 52 0 0.0 1.7 0.00 0.12 0.00 61 1014.2
20260507121803 52 0 0.0 1.7 0.00 0.12 0.00 62 1014.2
20260507120903 51 0 0.0 3.5 0.00 0.13 0.00 62 1014.0
20260507120004 51 0 0.0 0.0 0.00 0.13 0.00 67 1013.9
20260507115620 51 0 0.0 0.0 0.00 0.13 0.00 68 1014.0
20260507114503 51 0 0.0 0.0 0.00 0.14 0.00 67 1013.8
20260507113603 50 0 0.0 0.0 0.00 0.15 0.00 67 1013.8
20260507112917 50 0 0.0 0.0 0.00 0.16 0.00 66 1013.7
20260507111803 50 0 0.0 0.0 0.00 0.17 0.00 68 1013.8
20260507110903 50 0 0.0 0.0 0.00 0.17 0.00 68 1013.7
20260507110003 50 0 0.0 0.0 0.00 0.17 0.00 69 1013.7
20260507105620 50 0 0.0 0.9 0.00 0.17 0.00 69 1013.8
20260507104503 50 0 0.0 0.9 0.00 0.18 0.00 68 1013.6
20260507103603 50 0 0.0 0.9 0.00 0.18 0.00 68 1013.5
20260507102703 50 0 0.0 0.9 0.00 0.18 0.00 67 1013.2
20260507102020 50 0 0.0 0.9 0.00 0.19 0.00 68 1013.2
20260507100903 50 0 0.0 0.9 0.00 0.19 0.00 71 1013.2
20260507100219 51 0 0.0 1.7 0.00 0.19 0.00 70 1013.1
20260507095403 51 0 0.0 1.7 0.00 0.19 0.00 75 1013.0
20260507094503 51 0 0.0 1.7 0.00 0.19 0.00 75 1012.8
20260507093603 51 0 0.0 0.9 0.00 0.19 0.00 76 1012.8
20260507092703 51 0 0.0 0.9 0.00 0.19 0.00 76 1012.7
20260507091803 51 0 0.0 1.7 0.00 0.19 0.00 76 1012.7
20260507090903 51 0 0.0 1.7 0.00 0.19 0.00 75 1012.8
20260507090004 52 0 0.0 1.7 0.00 0.19 0.00 77 1012.8
20260507085403 52 0 0.0 3.5 0.00 0.19 0.00 75 1012.9
20260507084503 52 0 0.0 3.5 0.00 0.19 0.00 76 1012.8
20260507083603 52 0 0.0 1.7 0.00 0.19 0.00 77 1012.8
20260507082703 52 0 0.0 0.9 0.00 0.19 0.00 76 1012.7
20260507081803 52 0 0.0 0.9 0.00 0.19 0.00 76 1012.8
20260507081118 52 0 0.0 0.0 0.00 0.19 0.00 77 1012.6
20260507080004 52 0 0.0 2.6 0.00 0.19 0.00 76 1012.4
20260507075617 52 0 0.0 2.6 0.00 0.19 0.00 75 1012.5
20260507074503 52 0 0.0 0.9 0.00 0.19 0.00 76 1012.4
20260507073603 53 0 0.0 0.9 0.00 0.19 0.00 80 1012.3
20260507072703 53 0 0.0 0.9 0.00 0.19 0.00 80 1012.2
20260507071803 53 0 0.0 0.0 0.00 0.19 0.00 80 1012.2
20260507071119 53 0 0.0 0.0 0.00 0.19 0.00 81 1012.2
20260507070221 53 0 0.0 0.9 0.00 0.19 0.00 81 1012.4
20260507065403 53 0 0.0 0.9 0.00 0.19 0.00 80 1012.4
20260507064503 53 0 0.0 0.9 0.00 0.19 0.00 82 1012.5
20260507063603 53 0 0.0 0.9 0.00 0.19 0.00 82 1012.7
20260507062920 53 0 0.0 0.9 0.00 0.19 0.00 81 1012.7
20260507061803 53 0 0.0 0.9 0.00 0.19 0.00 81 1012.7
20260507060903 53 0 0.0 0.0 0.00 0.19 0.00 82 1012.9
20260507060003 54 0 0.0 0.9 0.00 0.19 0.00 82 1012.9
20260507055403 54 0 0.0 0.9 0.00 0.19 0.00 82 1013.1
20260507054721 54 0 0.0 0.9 0.00 0.19 0.00 82 1013.0
20260507053603 54 0 0.0 1.7 0.00 0.19 0.00 81 1012.9
20260507052703 54 0 0.0 0.9 0.00 0.19 0.00 81 1012.6
20260507052018 54 0 0.0 4.3 0.00 0.19 0.00 79 1012.5
20260507050903 54 0 0.0 2.6 0.00 0.19 0.00 81 1012.3
20260507050003 54 0 0.0 2.6 0.00 0.19 0.00 80 1012.2
20260507045403 54 0 0.0 1.7 0.00 0.19 0.00 80 1012.3
20260507044503 54 0 0.0 1.7 0.00 0.19 0.00 80 1012.5
20260507043603 54 0 0.0 0.9 0.00 0.19 0.00 81 1012.3
20260507042703 54 0 0.0 1.7 0.00 0.19 0.00 80 1012.2
20260507041803 54 0 0.0 1.7 0.00 0.19 0.00 82 1012.3
20260507040903 54 0 0.0 0.9 0.00 0.19 0.00 81 1012.2
20260507040218 54 0 0.0 0.9 0.00 0.19 0.00 83 1012.3
20260507035403 54 0 0.0 0.9 0.00 0.19 0.19 83 1012.7
20260507034503 54 0 0.0 1.7 0.00 0.19 0.19 84 1012.7
20260507033603 55 0 0.0 1.7 0.00 0.19 0.19 85 1012.0
20260507032703 55 0 0.0 3.5 0.00 0.19 0.19 84 1012.2
20260507032019 55 0 0.0 3.5 0.00 0.19 0.19 84 1012.4
20260507030903 56 0 0.0 0.9 0.00 0.19 0.19 85 1012.6
20260507030003 56 0 0.0 1.7 0.00 0.19 0.19 85 1012.5
20260507025620 56 38 0.9 1.7 0.00 0.19 0.19 84 1012.5
20260507024503 56 0 0.0 1.7 0.00 0.19 0.19 85 1012.2
20260507023603 56 0 0.0 1.7 0.00 0.19 0.19 84 1012.2
20260507022703 56 0 0.0 2.6 0.00 0.19 0.19 85 1011.7
20260507021803 56 106 0.9 2.6 0.00 0.19 0.19 84 1011.8
20260507021117 56 0 0.0 1.7 0.00 0.19 0.19 85 1011.8
20260507020219 57 0 0.0 1.7 0.00 0.19 0.19 85 1011.3
20260507015403 57 0 0.0 1.7 0.00 0.19 0.19 85 1011.7
20260507014503 57 0 0.0 1.7 0.00 0.19 0.19 85 1011.5
20260507013821 57 0 0.0 2.6 0.00 0.19 0.19 84 1011.3
20260507012703 57 0 0.0 1.7 0.00 0.19 0.19 85 1011.6
20260507012020 58 196 0.9 2.6 0.00 0.19 0.19 85 1011.6
20260507010903 58 0 0.0 3.5 0.00 0.19 0.19 85 1011.2
20260507010003 58 0 0.0 0.9 0.00 0.19 0.19 83 1011.0
20260507005617 58 0 0.0 0.9 0.00 0.19 0.19 83 1011.1
20260507004503 59 0 0.0 1.7 0.00 0.19 0.19 83 1011.4
20260507003821 59 0 0.0 0.9 0.00 0.19 0.19 84 1011.7
20260507002703 59 0 0.0 1.7 0.00 0.19 0.19 83 1011.5
20260507001803 60 0 0.0 1.7 0.00 0.19 0.19 84 1011.3
20260507000903 60 0 0.0 1.7 0.00 0.19 0.19 84 1011.2
20260507000003 60 0 0.0 2.6 0.00 0.19 0.19 84 1011.0
20260506235617 60 0 0.0 2.6 0.00 0.19 0.19 84 1011.0
20260506234503 61 0 0.0 2.6 0.00 0.19 0.19 85 1011.0
20260506233817 61 0 0.0 0.9 0.00 0.19 0.19 85 1010.7
20260506232703 61 0 0.0 0.9 0.00 0.19 0.19 85 1010.7
20260506231803 62 43 0.9 3.5 0.00 0.19 0.19 84 1010.1
20260506230903 62 360 0.9 6.1 0.00 0.19 0.19 84 1010.0
20260506230003 63 0 0.0 1.7 0.00 0.19 0.19 86 1010.3
20260506225403 63 0 0.0 0.0 0.00 0.19 0.19 87 1010.0
20260506224503 63 0 0.0 0.0 0.00 0.19 0.19 87 1010.1
20260506223603 63 0 0.0 0.9 0.00 0.19 0.19 86 1010.0
20260506222703 63 0 0.0 0.9 0.00 0.19 0.19 86 1010.0
20260506221803 64 0 0.0 0.9 0.00 0.19 0.19 85 1010.0
20260506220903 64 0 0.0 0.9 0.00 0.19 0.19 85 1009.8
20260506220217 64 0 0.0 1.7 0.00 0.19 0.19 86 1009.7
20260506215403 65 0 0.0 2.6 0.00 0.19 0.19 86 1009.6
20260506214503 65 0 0.0 1.7 0.00 0.19 0.19 87 1009.4
20260506213603 65 18 0.9 2.6 0.00 0.19 0.19 85 1009.4
20260506212920 65 0 0.0 2.6 0.00 0.19 0.19 87 1009.0
20260506211803 65 0 0.0 2.6 0.00 0.19 0.19 89 1009.2
20260506210903 65 0 0.0 2.6 0.00 0.19 0.19 90 1009.2
20260506210003 66 0 0.0 1.7 0.00 0.19 0.19 92 1008.9
20260506205403 66 0 0.0 1.7 0.00 0.19 0.19 92 1008.8
20260506204503 66 0 0.0 0.0 0.00 0.19 0.19 92 1008.4
20260506203603 66 0 0.0 0.0 0.00 0.19 0.19 92 1008.3
20260506202703 66 0 0.0 0.0 0.00 0.19 0.19 92 1008.2
20260506201803 65 0 0.0 0.9 0.00 0.19 0.19 92 1008.3
20260506200903 65 0 0.0 0.9 0.00 0.19 0.19 93 1008.3
20260506200218 65 0 0.0 0.0 0.00 0.19 0.19 93 1008.3
20260506195620 65 0 0.0 0.9 0.00 0.19 0.19 94 1008.3
20260506194717 64 0 0.0 1.7 0.00 0.19 0.19 94 1008.3
20260506193603 64 224 0.9 1.7 0.00 0.19 0.19 93 1008.3
20260506192703 64 0 0.0 1.7 0.00 0.19 0.19 93 1008.4
20260506191803 64 0 0.0 0.9 0.00 0.19 0.19 93 1008.3
20260506190903 64 0 0.0 0.9 0.01 0.19 0.19 92 1008.5
20260506190003 64 0 0.0 0.9 0.02 0.19 0.19 93 1008.6